OpenBCM V2.0.2 (Linux)

Packet Radio Mailbox

IZ3LSV

[San Dona' di P. JN]

 Login: GUEST





  
LU9DCE > KEPS     14.07.18 19:50l 255 Lines 12655 Bytes #999 (0) @ WW
BID : 5137_LU9DCE
Read: GUEST
Subj: SAT TLE 18
Path: IZ3LSV<DB0ERF<DB0RES<IR2UBX<IW8PGT<CX2SA<ZL2BAU<GB7YEW<LU9DCE
Sent: 180518/0400Z 5137@LU9DCE.TOR.BA.ARG.SOAM BPQ6.0.16


            __    _  _  ___  ____   ___  ____    ____  ____  ____
           (  )  / )( \/ _ \(    \ / __)(  __)  (  _ \(  _ \/ ___)
           / (_/\) \/ (\__  )) D (( (__  ) _)    ) _ ( ) _ (\___ \
           \____/\____/(___/(____/ \___)(____)  (____/(____/(____/
               ESTACION DE PACKET RADIO - BUENOS AIRES (GF05OM)
                   BOLETINES INFORMATIVOS PROGRAMADOS (BIP)
                    LU9DCE@GMX.COM - RF 145070 @ 1200 BAUD
                    MAP LU9DCE lu9dce.dynu.com UDP 10093 B
            BPQ32 (*WINDOWS 7*) - TELNET LU9DCE.DYNU.COM PORT 8010

+------------------------------------------------------------------------------+
OSCAR 7
1  7530U 74089B   18137.54052841 -.00000040 +00000-0 +29123-4 0  9998
2  7530 101.6846 105.3232 0012448 036.1529 072.0088 12.53632579990527
OSCAR 11 (UoSAT 2)
1 14781U 84021B   18137.57048462 +.00000074 +00000-0 +15262-4 0  9993
2 14781 097.6521 175.0875 0008606 173.3582 186.7748 14.83003765818909
OSCAR 19 (LUSAT)
1 20442U 90005G   18137.41809036 +.00000005 +00000-0 +18089-4 0  9992
2 20442 098.6085 076.1020 0010712 238.5958 121.4179 14.32895216479429
KITSAT B
1 22825U 93061C   18136.52512195 -.00000012 +00000-0 +13186-4 0  9994
2 22825 098.8603 112.0710 0009530 080.3253 279.9005 14.30029930284776
POSAT 1
1 22826U 93061D   18137.52860103 -.00000001 +00000-0 +17190-4 0  9998
2 22826 098.8546 113.1340 0010000 068.4218 291.8028 14.30361428285125
RADIO ROSTO
1 23439U 94085A   18137.22291900 -.00000043 +00000-0 -10514-4 0  9996
2 23439 064.8196 038.9111 0158123 187.7002 336.0068 11.27566760963077
JAS 2
1 24278U 96046B   18137.61636567 -.00000059  00000-0 -24037-4 0  9994
2 24278  98.5198 340.5842 0350175 190.0812 169.3175 13.53083715 74103
TECHSAT 1B
1 25397U 98043D   18137.38859645 -.00000012 +00000-0 +13713-4 0  9991
2 25397 098.6481 078.3399 0002397 099.3783 260.7667 14.23645376031125
ISS (ZARYA)
1 25544U 98067A   18137.54996707 +.00001794 +00000-0 +34422-4 0  9997
2 25544 051.6400 171.4365 0004053 093.8958 030.5332 15.54066679113751
PCSAT
1 26931U 01043C   18137.80152651 -.00000037  00000-0  17658-4 0  9999
2 26931  67.0509 307.8133 0007437 278.7244  81.3014 14.30504978868202
SAUDISAT 1C
1 27607U 02058C   18137.57585752 +.00000005 +00000-0 +21548-4 0  9990
2 27607 064.5543 183.6040 0061903 335.1612 024.6513 14.75448379828318
CUTE-1
1 27844U 03031E   18137.56387048 +.00000046 +00000-0 +40596-4 0  9991
2 27844 098.6873 146.6714 0011048 099.4946 260.7481 14.22112352771806
CUBESAT XI 4
1 27848U 03031J   18137.51467578 +.00000038 +00000-0 +37130-4 0  9998
2 27848 098.6960 147.0107 0010885 108.7268 251.5091 14.21716440771674
MOZHAYETS 4
1 27939U 03042A   18137.82954505  .00000081  00000-0  23143-4 0  9993
2 27939  97.9858 277.7560 0011739 241.8446 244.3895 14.66684836782365
CUBESAT XI 5
1 28895U 05043F   18137.37393751 +.00000147 +00000-0 +36964-4 0  9996
2 28895 097.9050 290.0852 0017297 162.3778 197.8028 14.63543697669138
CUTE-1.7+APD II
1 32785U 08021C   18137.52066189 +.00000245 +00000-0 +32169-4 0  9999
2 32785 097.5483 151.1616 0014215 135.3689 224.8675 14.88114343544545
DELFI C3
1 32789U 08021G   18137.61571532 +.00001447 +00000-0 +10322-3 0  9997
2 32789 097.5149 193.1971 0013610 048.8559 311.3840 15.06012622547086
SEEDS
1 32791U 08021J   18137.79358825  .00000450  00000-0  51379-4 0  9998
2 32791  97.5377 156.7114 0014909 116.9562 243.3181 14.90542187544983
YUBELEINY
1 32953U 08025A   18137.77712774  .00000022  00000-0  91242-4 0  9995
2 32953  82.5063  31.5926 0018138 277.9310  81.9711 12.43082934452996
PRISM (HITOMI)
1 33493U 09002B   18137.87316905  .00000868  00000-0  82454-4 0  9991
2 33493  98.1346  38.7962 0016552  59.5167 300.7685 14.96195071505813
KKS-1 (KISEKI)
1 33499U 09002H   18137.86250723  .00000108  00000-0  24045-4 0  9990
2 33499  98.3555 318.6463 0009932  36.2413 323.9466 14.75326070500719
SWISSCUBE
1 35932U 09051B   18137.37779414 +.00000145 +00000-0 +43760-4 0  9993
2 35932 098.5412 287.8052 0006585 310.4243 049.6379 14.56155750458910
BEESAT
1 35933U 09051C   18137.47592862 +.00000134 +00000-0 +41260-4 0  9996
2 35933 098.5452 289.4339 0005021 328.1047 031.9845 14.56260317458999
ITUPSAT 1
1 35935U 09051E   18137.37585267 +.00000114 +00000-0 +37316-4 0  9993
2 35935 098.5563 289.5848 0007220 319.5843 040.4816 14.55437762458814
XIWANG-1 (HOPE-1)
1 36122U 09072B   18137.23048393 -.00000023 +00000-0 +49367-4 0  9993
2 36122 100.0770 153.3120 0007520 178.4536 181.6603 13.16344599404473
TISAT 1
1 36799U 10035E   18137.30838319  .00000476  00000-0  54508-4 0  9991
2 36799  98.1017 272.7143 0011221 314.4316  45.5982 14.90784704425555
JUGNU
1 37839U 11058B   18137.48213031 +.00000333 +00000-0 +35596-4 0  9998
2 37839 019.9605 223.4408 0018759 268.6645 190.2281 14.12619246340918
SRMSAT
1 37841U 11058D   18137.44615990 +.00000312 +00000-0 +26513-4 0  9993
2 37841 019.9719 272.2283 0011829 152.3205 251.5050 14.10606124340444
M-CUBED/EXP-1 PRIME
1 37855U 11061F   18137.68020477  .00001841  00000-0  10138-3 0  9991
2 37855 101.7185 184.6120 0176979 172.5055 187.8867 15.04346190357068
HORYU 2
1 38340U 12025D   18137.62684048  .00000209  00000-0  38767-4 0  9992
2 38340  98.3678 158.2962 0010461 313.0048  47.0283 14.75547359322602
STRAND 1
1 39090U 13009E   18137.64000225  .00000024  00000-0  23637-4 0  9994
2 39090  98.5247 344.4191 0009911  34.4668 325.7158 14.35024611273443
SOMP
1 39134U 13015E   18137.58850027 +.00001295 +00000-0 +70820-4 0  9993
2 39134 064.8634 225.8838 0014762 216.1129 143.9002 15.19102642279874
BEESAT 3
1 39135U 13015F   18137.56030718 +.00001058 +00000-0 +63553-4 0  9991
2 39135 064.8700 238.9376 0024959 238.0953 121.7744 15.16632997279615
BEESAT 2
1 39136U 13015G   18137.58525971 +.00001016 +00000-0 +62382-4 0  9997
2 39136 064.8693 241.5587 0023524 238.9415 120.9402 15.16096683279562
CUBEBUG 1
1 39153U 13018D   18137.75775437  .00000203  00000-0  33562-4 0  9997
2 39153  97.9776 233.1842 0017983  48.4901 311.7850 14.80389117273093
ZACUBE
1 39417U 13066B   18137.57178362 +.00000198 +00000-0 +31571-4 0  9998
2 39417 097.5896 167.8414 0057559 255.0522 104.4314 14.80927106242264
TRITON 1
1 39427U 13066M   18137.82550866  .00000251  00000-0  48140-4 0  9990
2 39427  97.6408 135.7636 0114016 357.4571   2.6041 14.67657233240123
GOMX 1
1 39430U 13066Q   18137.85553227  .00000241  00000-0  52203-4 0  9995
2 39430  97.6957 116.9180 0153037  66.5143 295.2058 14.59070072238733
HUMSAT D
1 39433U 13066T   18137.11967755 +.00000557 +00000-0 +60172-4 0  9996
2 39433 097.6063 194.5809 0030978 183.1085 176.9946 14.91841668242619
50 SAT
1 39436U 13066W   18137.90378460  .04605875  26112-5  29178-2 0  9999
2 39436  97.7036 274.0228 0018733 288.8126  71.4107 16.17228058248612
CUBEBUG 2
1 39440U 13066AA  18137.55943635 +.00000212 +00000-0 +36742-4 0  9997
2 39440 097.6028 154.6126 0079033 295.5056 063.7996 14.75662685240201
FUNCUBE 1
1 39444U 13066AE  18137.58379010 +.00000284 +00000-0 +41650-4 0  9997
2 39444 097.5905 169.3393 0056746 250.3638 109.1446 14.81702116240530
UWE-3
1 39446U 13066AG  18137.56693781 +.00000214 +00000-0 +35354-4 0  9998
2 39446 097.5948 160.8409 0068609 275.7775 083.5618 14.78196313240007
SPROUT
1 39770U 14029E   18137.83844458  .00000677  00000-0  82027-4 0  9999
2 39770  97.8749 239.1401 0007671 315.6788  44.3811 14.86816621215856
UNISAT 6
1 40012U 14033C   18137.59476265 +.00000220 +00000-0 +40459-4 0  9992
2 40012 097.8125 014.9937 0057224 298.7424 060.8042 14.73811070210195
DUCHIFAT 1
1 40021U 14033M   18137.57614916 +.00000494 +00000-0 +56714-4 0  9991
2 40021 097.9169 056.2387 0011503 281.8653 078.1274 14.90289904212396
QB50P1
1 40025U 14033R   18137.49809497 +.00000325 +00000-0 +40822-4 0  9992
2 40025 097.9065 052.9575 0011108 289.1813 070.8201 14.88702274211718
CHUBUSAT 1
1 40300U 14070C   18137.77784953  .00000759  00000-0  36624-4 0  9995
2 40300  97.3655 216.1215 0020642  14.0345 101.8084 15.21540504195658
NUDT-PHONESAT
1 40900U 15049B   18137.52183928 +.00002262 +00000-0 +10428-3 0  9990
2 40900 097.4413 146.1301 0014893 131.6738 228.5775 15.21205636147259
ZDPS 2A
1 40901U 15049C   18137.86863597  .00000968  00000-0  52223-4 0  9996
2 40901  97.4592 144.6901 0014874 137.8063 222.4318 15.17043622147060
ZDPS 2B
1 40902U 15049D   18137.77226872  .00000863  00000-0  47159-4 0  9992
2 40902  97.4490 142.6677 0015009 135.6054 224.6386 15.16838463147033
XW-2A
1 40903U 15049E   18137.84130381  .00002247  00000-0  57540-4 0  9993
2 40903  97.3869 172.3923 0015489 134.9855 225.2649 15.40391312149136
KAITUO 1A
1 40904U 15049F   18137.82970447  .00000385  00000-0  24082-4 0  9993
2 40904  97.4590 141.9822 0015615 137.3155 323.0351 15.14994234146902
OBJECT G
1 40905U 15049G   18137.87857822  .00000459  00000-0  28819-4 0  9994
2 40905  97.4588 140.1550 0017066 131.7200 228.5494 15.13951174146834
XW-2C
1 40906U 15049H   18137.80749570  .00000668  00000-0  39052-4 0  9991
2 40906  97.4601 141.8569 0016322 131.0711 229.1935 15.15157560146895
XW-2D
1 40907U 15049J   18137.82898764  .00000751  00000-0  43295-4 0  9991
2 40907  97.4574 141.5784 0015745 128.9049 231.3590 15.15306486146905
LILACSAT 2
1 40908U 15049K   18137.53458800 +.00000379 +00000-0 +24712-4 0  9992
2 40908 097.4686 140.6878 0017285 131.7077 228.5636 15.13491086146737
XW-2F
1 40910U 15049M   18137.80131520  .00001131  00000-0  61354-4 0  9992
2 40910  97.4577 142.8113 0016557 125.1963 235.0823 15.16481018146858
XW-2B
1 40911U 15049N   18137.71330528  .00000716  00000-0  41503-4 0  9994
2 40911  97.4610 141.9913 0015635 129.7859 230.4753 15.15250792146780
KAITUO 1B
1 40912U 15049P   18137.58742789 +.00001238 +00000-0 +62765-4 0  9999
2 40912 097.4507 145.3500 0016918 114.6676 002.9380 15.18690767147020
